Waarnemingen

Advertentie
Mijn weer
Kirkwall, Groot Brittannië (3017): temperatuur & dauwpunt: 30.06.2020 21:00:00 - 06.07.2020 21:00:00 (BST)Kirkwall, Groot Brittannië (3017): temperatuur -20cm & temperatuur -100cm: 30.06.2020 21:00:00 - 06.07.2020 21:00:00 (BST)Kirkwall, Groot Brittannië (3017): windsnelheid & windstoten: 30.06.2020 21:00:00 - 06.07.2020 21:00:00 (BST)Kirkwall, Groot Brittannië (3017): windrichting: 30.06.2020 21:00:00 - 06.07.2020 21:00:00 (BST)Kirkwall, Groot Brittannië (3017): luchtdruk: 30.06.2020 21:00:00 - 06.07.2020 21:00:00 (BST)Kirkwall, Groot Brittannië (3017): zicht: 30.06.2020 21:00:00 - 06.07.2020 21:00:00 (BST)Kirkwall, Groot Brittannië (3017): Zonneschijnduur: 30.06.2020 21:00:00 - 06.07.2020 21:00:00 (BST)Kirkwall, Groot Brittannië (3017): neerslag: 30.06.2020 21:00:00 - 06.07.2020 21:00:00 (BST)
Datum & Tijd tt [°C] td [°C] tt -20cm [°C] tt -100cm [°C] ff [km/u] ff [kn] fx [km/u] fx [kn] dd ppp [hPa] vv [km] sd [min] rr [mm]
06.07.2020 21:00:00 9,1 7,6 - - 21 11 - - WNW 1012,5 18 0 -
06.07.2020 20:00:00 9,4 8,1 - - 28 15 - - WNW 1012,2 45 0 0,2
06.07.2020 19:00:00 10,0 8,6 - - 29 16 65 35 WNW 1011,9 4,5 0 1,6
06.07.2020 18:00:00 10,6 8,4 - - 46 25 68 37 W 1012,0 1,6 0 0,2
06.07.2020 17:00:00 13,1 5,8 - - 46 25 72 39 W 1011,9 29 30 0,0
06.07.2020 16:00:00 12,9 6,4 - - 54 29 72 39 W 1012,5 28 24 0,0
06.07.2020 15:00:00 12,9 7,2 - - 44 24 63 34 W 1012,4 35 12 0,0
06.07.2020 14:00:00 12,1 8,2 - - 31 17 63 34 W 1012,4 28 12 0,0
06.07.2020 13:00:00 12,3 7,0 - - 34 18 52 28 WNW 1012,1 30 24 0,0
06.07.2020 12:00:00 12,4 6,8 - - 31 17 52 28 WNW 1011,8 30 30 0,0
06.07.2020 11:00:00 11,4 4,6 - - 37 20 54 29 NW 1011,4 30 30 0,0
06.07.2020 10:00:00 10,8 5,2 13,2 12,2 37 20 55 30 NW 1010,5 30 18 0,0
06.07.2020 09:00:00 11,1 6,4 - - 34 18 54 29 NW 1009,6 27 18 0,2
06.07.2020 08:00:00 10,5 6,6 - - 28 15 48 26 NW 1008,6 30 12 0,0
06.07.2020 07:00:00 10,2 5,9 - - 31 17 52 28 NW 1007,8 30 30 0,0
06.07.2020 06:00:00 10,4 7,3 - - 31 17 50 27 NNW 1006,4 27 0 0,0
06.07.2020 05:00:00 10,1 8,3 - - 34 18 52 28 NNW 1005,1 21 0 0,2
06.07.2020 04:00:00 10,9 8,9 - - 29 16 - - NNW 1003,7 20 0 0,0
06.07.2020 03:00:00 10,8 8,7 - - 31 17 46 25 NNW 1002,5 24 0 0,4
06.07.2020 02:00:00 10,8 9,2 - - 24 13 52 28 NNW 1001,5 4,4 0 0,2
06.07.2020 01:00:00 11,0 9,4 - - 28 15 - - NW 1000,2 20 - 0,2
06.07.2020 00:00:00 10,6 9,0 - - 22 12 - - NW 999,0 26 0 0,2
05.07.2020 23:00:00 10,5 8,6 - - 26 14 - - NW 998,1 24 0 0,0
05.07.2020 22:00:00 10,7 7,7 - - 24 13 - - WNW 997,3 45 0 0,0
05.07.2020 21:00:00 11,5 7,1 - - 24 13 - - WNW 996,7 45 54 0,0
05.07.2020 20:00:00 12,1 7,7 - - 22 12 - - WNW 996,0 55 42 0,0
05.07.2020 19:00:00 11,7 8,2 - - 22 12 - - WNW 995,3 60 6 0,0
05.07.2020 18:00:00 13,4 8,8 - - 24 13 - - WNW 994,8 50 24 0,0
05.07.2020 17:00:00 12,4 7,3 - - 24 13 - - WNW 994,2 65 30 0,0
05.07.2020 16:00:00 12,6 8,4 - - 21 11 - - W 993,9 55 18 0,0
05.07.2020 15:00:00 12,0 8,6 - - 22 12 - - W 993,7 60 6 0,2
05.07.2020 14:00:00 11,0 9,2 - - 22 12 - - W 993,3 15 0 0,2
05.07.2020 13:00:00 11,2 9,1 - - 21 11 - - WNW 992,9 28 0 0,4
05.07.2020 12:00:00 10,9 9,1 - - 18 10 - - W 992,4 19 0 0,4
05.07.2020 11:00:00 10,7 8,9 - - 21 11 - - W 992,0 17 0 0,8
05.07.2020 10:00:00 10,6 9,1 13,5 12,2 18 10 - - W 991,8 15 0 0,6
05.07.2020 09:00:00 10,2 8,9 - - 18 10 - - W 991,7 11 0 0,4
05.07.2020 08:00:00 10,0 8,9 - - 15 8 - - WNW 991,2 11 0 0,2
05.07.2020 07:00:00 9,8 9,1 - - 11 6 - - WNW 991,0 55 0 0,2
05.07.2020 06:00:00 9,7 9,2 - - 11 6 - - NW 990,6 35 0 0,4
05.07.2020 05:00:00 10,1 9,5 - - 13 7 - - N 990,5 10 0 0,4
05.07.2020 04:00:00 10,0 9,4 - - 11 6 - - NNO 990,9 15 0 0,6
05.07.2020 03:00:00 10,0 9,4 - - 9 5 - - NO 991,7 10 0 1,6
05.07.2020 02:00:00 10,1 9,5 - - 5 3 - - NNO 992,6 5 0 2,0
05.07.2020 01:00:00 9,9 9,3 - - 2 1 - - O 993,7 4,4 - 1,4
05.07.2020 00:00:00 10,1 9,4 - - 8 4 - - OZO 994,6 10 0 1,4
04.07.2020 23:00:00 10,3 9,4 - - 9 5 - - Z 996,3 40 0 0,0
04.07.2020 22:00:00 10,2 9,2 - - 11 6 - - ZZO 996,7 40 0 0,0
04.07.2020 21:00:00 11,4 10,0 - - 8 4 - - ZZO 997,8 45 0 0,0
04.07.2020 20:00:00 11,5 9,6 - - 11 6 - - Z 998,8 45 12 0,0
04.07.2020 19:00:00 11,9 10,2 - - 13 7 - - Z 999,2 50 0 0,0
04.07.2020 18:00:00 11,4 10,1 - - 15 8 - - Z 999,8 29 0 0,0
04.07.2020 17:00:00 11,6 10,0 - - 18 10 - - Z 1000,5 45 0 0,0
04.07.2020 16:00:00 12,4 10,6 - - 15 8 - - Z 1000,8 40 0 0,0
04.07.2020 15:00:00 12,4 10,5 - - 11 6 - - ZZW 1001,1 40 0 0,4
04.07.2020 14:00:00 11,9 10,6 - - 18 10 - - ZW 1001,4 13 0 0,8
04.07.2020 13:00:00 12,2 10,1 - - 22 12 - - ZZW 1001,4 17 0 0,2
04.07.2020 12:00:00 12,6 9,8 - - 13 7 - - Z 1001,4 40 0 0,0
04.07.2020 11:00:00 12,3 9,0 - - 15 8 - - ZZW 1001,4 40 0 0,0
04.07.2020 10:00:00 11,9 8,9 13,7 12,2 11 6 - - ZW 1001,5 35 0 0,0
04.07.2020 09:00:00 11,8 9,4 - - 11 6 - - ZZW 1001,2 35 0 0,0
04.07.2020 08:00:00 11,1 9,0 - - 15 8 - - Z 1001,2 40 0 0,0
04.07.2020 07:00:00 10,6 9,6 - - 13 7 - - Z 1001,5 40 0 0,0
04.07.2020 06:00:00 10,2 9,7 - - 11 6 - - Z 1001,5 25 0 0,0
04.07.2020 05:00:00 9,5 9,0 - - 15 8 - - Z 1001,6 15 0 0,0
04.07.2020 04:00:00 9,4 8,8 - - 5 3 - - ZW 1001,5 26 0 0,0
04.07.2020 03:00:00 9,8 9,2 - - 8 4 - - Z 1001,4 11 0 0,0
04.07.2020 02:00:00 10,1 9,5 - - 11 6 - - Z 1001,4 21 0 0,0
04.07.2020 01:00:00 10,3 9,7 - - 0 0 - - N 1001,6 11 - 0,2
04.07.2020 00:00:00 10,1 9,5 - - 8 4 - - OZO 1001,6 6 0 0,0
03.07.2020 23:00:00 10,1 9,4 - - 9 5 - - O 1001,3 7 0 0,4
03.07.2020 22:00:00 10,2 9,4 - - 15 8 - - O 1001,1 2,3 0 0,4
03.07.2020 21:00:00 10,3 9,5 - - 11 6 - - O 1001,0 35 0 0,0
03.07.2020 20:00:00 10,0 9,0 - - 11 6 - - OZO 1001,1 25 0 0,2
03.07.2020 19:00:00 9,9 8,9 - - 15 8 - - ZO 1001,0 26 0 1,0
03.07.2020 18:00:00 10,1 9,2 - - 18 10 - - O 1001,0 7 0 1,4
03.07.2020 17:00:00 10,4 9,2 - - 16 9 - - O 1001,4 13 0 1,0
03.07.2020 16:00:00 11,3 7,8 - - 21 11 - - OZO 1001,4 25 0 0,0
03.07.2020 15:00:00 12,1 6,9 - - 24 13 - - OZO 1001,6 40 0 0,0
03.07.2020 14:00:00 12,5 6,5 - - 22 12 - - OZO 1002,2 45 6 0,0
03.07.2020 13:00:00 13,1 6,4 - - 24 13 - - ZO 1002,5 50 48 0,0
03.07.2020 12:00:00 13,6 5,6 - - 21 11 - - OZO 1002,8 45 60 0,0
03.07.2020 11:00:00 13,3 6,9 - - 15 8 - - ZO 1003,1 45 6 0,0
03.07.2020 10:00:00 13,2 6,0 13,7 12,2 13 7 - - ZO 1003,4 50 36 0,0
03.07.2020 09:00:00 12,8 7,1 - - 9 5 - - ZZO 1003,8 45 18 0,0
03.07.2020 08:00:00 10,7 6,9 - - 8 4 - - Z 1004,2 55 0 0,0
03.07.2020 07:00:00 10,7 6,1 - - 9 5 - - ZZW 1004,7 45 12 0,0
03.07.2020 06:00:00 9,7 7,3 - - 9 5 - - ZZW 1005,2 40 12 0,0
03.07.2020 05:00:00 8,9 7,0 - - 11 6 - - ZZW 1005,5 40 0 0,0
03.07.2020 04:00:00 8,2 6,0 - - 15 8 - - ZW 1006,1 50 0 0,0
03.07.2020 03:00:00 7,5 5,4 - - 15 8 - - ZW 1006,4 45 0 0,0
03.07.2020 02:00:00 8,0 5,4 - - 15 8 - - ZW 1007,0 50 0 0,0
03.07.2020 01:00:00 8,5 5,7 - - 13 7 - - ZW 1007,8 45 - 0,0
03.07.2020 00:00:00 9,0 5,9 - - 13 7 - - WZW 1008,4 45 0 0,0
02.07.2020 23:00:00 7,9 4,9 - - 16 9 - - WZW 1008,6 45 0 0,0
02.07.2020 22:00:00 8,7 4,8 - - 15 8 - - WZW 1008,9 45 30 0,0
02.07.2020 21:00:00 10,9 4,0 - - 22 12 - - W 1009,1 45 36 0,0
02.07.2020 20:00:00 10,7 3,4 - - 22 12 - - W 1009,2 45 0 0,0
02.07.2020 19:00:00 11,0 3,1 - - 28 15 - - W 1009,4 40 0 0,0
02.07.2020 18:00:00 12,0 3,8 - - 26 14 - - W 1009,4 45 18 0,0
02.07.2020 17:00:00 11,8 4,0 - - 28 15 - - W 1009,6 35 24 0,0
02.07.2020 16:00:00 12,8 2,5 - - 24 13 - - W 1009,7 40 36 0,0
02.07.2020 15:00:00 11,9 4,4 - - 21 11 - - W 1009,8 45 0 0,0
02.07.2020 14:00:00 11,8 4,3 - - 21 11 - - W 1009,9 50 0 0,0
02.07.2020 13:00:00 12,5 4,6 - - 21 11 - - W 1009,7 45 6 0,0
02.07.2020 12:00:00 11,7 3,8 - - 22 12 - - WNW 1009,4 45 6 0,0
02.07.2020 11:00:00 11,1 3,7 - - 21 11 - - WNW 1009,4 45 0 0,0
02.07.2020 10:00:00 10,8 1,7 14,0 12,2 21 11 - - NW 1009,2 45 0 0,0
02.07.2020 09:00:00 10,1 4,4 - - 21 11 - - NW 1009,0 45 0 0,0
02.07.2020 08:00:00 9,6 3,1 - - 15 8 - - WNW 1008,7 60 0 0,0
02.07.2020 07:00:00 9,0 4,2 - - 13 7 - - WNW 1008,5 55 0 0,0
02.07.2020 06:00:00 7,9 4,5 - - 11 6 - - W 1008,3 55 0 0,0
02.07.2020 05:00:00 6,0 4,5 - - 5 3 - - W 1008,2 50 0 0,0
02.07.2020 04:00:00 6,6 4,7 - - 8 4 - - W 1008,5 55 0 0,0
02.07.2020 03:00:00 7,2 5,4 - - 15 8 - - NW 1008,6 50 0 0,0
02.07.2020 02:00:00 5,8 3,7 - - 8 4 - - W 1008,7 50 0 0,0
02.07.2020 01:00:00 6,2 3,6 - - 8 4 - - WNW 1008,8 45 - 0,0
02.07.2020 00:00:00 8,1 5,7 - - 18 10 - - N 1008,7 50 0 0,0
01.07.2020 23:00:00 7,8 5,4 - - 11 6 - - N 1008,6 50 0 0,0
01.07.2020 22:00:00 8,8 5,1 - - 16 9 - - N 1008,3 50 6 0,0
01.07.2020 21:00:00 9,1 6,3 - - 21 11 - - N 1007,9 45 0 0,0
01.07.2020 20:00:00 10,6 4,2 - - 18 10 - - N 1007,6 45 30 0,0
01.07.2020 19:00:00 10,9 4,7 - - 18 10 - - N 1007,5 45 6 0,0
01.07.2020 18:00:00 11,1 5,4 - - 24 13 - - N 1007,4 35 12 0,0
01.07.2020 17:00:00 12,5 4,7 - - 24 13 - - N 1007,2 50 36 0,0
01.07.2020 16:00:00 11,9 5,9 - - 22 12 - - N 1006,9 35 24 0,0
01.07.2020 15:00:00 12,1 5,6 - - 26 14 - - N 1006,7 45 48 0,0
01.07.2020 14:00:00 13,3 5,9 - - 24 13 - - N 1006,4 50 60 0,0
01.07.2020 13:00:00 13,0 5,7 - - 26 14 - - N 1006,2 40 30 0,0
01.07.2020 12:00:00 12,4 5,4 - - 24 13 - - NNO 1005,9 40 42 0,0
01.07.2020 11:00:00 11,5 5,0 - - 28 15 - - NNO 1005,5 40 30 0,0
01.07.2020 10:00:00 11,3 5,4 14,2 12,2 31 17 - - N 1005,2 35 48 0,0
01.07.2020 09:00:00 10,8 5,4 - - 28 15 - - N 1005,0 35 24 0,0
01.07.2020 08:00:00 10,9 5,4 - - 24 13 - - NNO 1004,6 35 0 0,0
01.07.2020 07:00:00 10,6 5,5 - - 28 15 - - NNO 1004,3 30 0 0,0
01.07.2020 06:00:00 10,6 6,6 - - 24 13 - - N 1004,0 26 0 0,0
01.07.2020 05:00:00 10,4 6,1 - - 31 17 - - NO 1003,5 26 0 0,0
01.07.2020 04:00:00 10,8 7,0 - - 28 15 - - NNO 1003,4 23 0 0,0
01.07.2020 03:00:00 10,7 8,1 - - 31 17 46 25 NNO 1003,1 19 0 0,0
01.07.2020 02:00:00 10,7 7,5 - - 37 20 50 27 NO 1003,1 23 0 0,0
01.07.2020 01:00:00 10,8 8,5 - - 35 19 50 27 NNO 1002,8 22 - 0,0
01.07.2020 00:00:00 10,9 9,1 - - 39 21 54 29 NNO 1002,4 20 0 0,0
30.06.2020 23:00:00 11,3 9,5 - - 42 23 52 28 NNO 1002,0 23 0 0,0
30.06.2020 22:00:00 11,4 10,2 - - 31 17 - - N 1001,5 19 0 0,0
30.06.2020 21:00:00 11,4 10,2 - - 26 14 - - NNW 1001,3 4,8 0 0,0

tt = temperatuur
td = dauwpunt
tt -20cm = temperatuur -20cm
tt -100cm = temperatuur -100cm
ff = windsnelheid
fx = windstoten
dd = windrichting
ppp = luchtdruk
vv = zicht
sd = Zonneschijnduur
rr = neerslag

Weerstations in de omgeving